www.pogodaiklimat.ru

Погода и климат >> Архив погоды >> Антарктида >> McMurdo


АРХИВ ПОГОДЫ в McMurdo

Время (UTC), дата Ветер
(напр.,м/с)
 
Видим.   Явления Облачность Т
(С)
Тd
(С)
f
(%)
Тe
(С)
Тes
(С)
Комфортность P
(гПа)
Po
(гПа)
Тmin
(С)
Tmax
(С)
R
(мм)
R24
(мм)
S
(см)
21 10.10 штиль 0 11 км слабый снег 8/5 900 м
[Sc Cs]
-15.2 -20.5 64 -15 -14 тепло 982.0 977.7
00 11.10 нст 2 11 км слабый снег туман 10/6 900 м
[Sc Cs]
-11.8 -16.8 66 -16 -15 тепло 982.2 977.9 -19.1 -11.5
03 11.10 нст 3 4800 м слабый снег 10/10 600 м
[Frnb]
-12.0 -16.3 70 -17 -17 тепло 982.1 977.8
06 11.10 В 4 11 км слабый снег 10/8 900 м
[Sc As trans]
-14.1 -18.2 71 -22 -22 по сезону 983.2 978.9
09 11.10 В 4 4800 м слабый снег туман 10/8 900 м
[Frnb As op]
-14.4 -18.1 73 -22 -22 по сезону 984.1 979.8
12 11.10 ЮВ 5 3200 м слабый снег туман 10/8 750 м
[Frnb As op]
-13.9 -17.4 75 -22 -22 по сезону 984.9 980.6 -14.6 -11.7 0.5
15 11.10 В 4 4000 м слабый снег туман 10/9 750 м
[Frnb As op]
-14.3 -17.4 77 -21 -21 по сезону 985.7 981.4
18 11.10 В 4 4800 м слабый снег туман 10/8 270 м
[Frnb As op]
-15.3 -18.4 77 -23 -23 по сезону 986.6 982.3
21 11.10 ЮВ 9 1200 м слабый снег {метель} туман 10/10 500 м
[Frnb]
-17.2 -20.0 79 -29 -29 по сезону 988.3 984.0
00 12.10 В 6 1600 м слабый снег {метель} туман 10/10 900 м
[Sc]
-18.3 -21.7 75 -29 -29 прохладно 990.8 986.5 -18.5 -13.4
03 12.10 В 3 1600 м слабый снег {метель} туман 10/10 900 м
[Frnb]
-21.1 -29.6 46 -29 -29 прохладно 991.6 987.2
06 12.10 СВ 7 8000 м слабый снег {метель} туман 9/4 900 м
[Sc Cs]
-20.7 -24.6 71 -32 -32 опасность
обморожения
991.7 987.3
09 12.10 СВ 2 11 км слабый снег туман 9/5 900 м
[Sc Ac As Cs]
-17.1 -22.3 64 -23 -23 по сезону 992.0 987.6
12 12.10 штиль 0 11 км в посл. час снег 9/3 900 м
[Sc Ac As Cs]
-19.6 -23.6 70 -20 -20 по сезону 992.3 988.0 -22.0 -16.7 1
15 12.10 нст 2 11 км 8/1 900 м
[Sc Ac lent Cs]
-17.7 -21.6 71 -23 -23 по сезону 991.7 987.3
18 12.10 СВ 2 11 км 8/3 900 м
[Sc Ac lent Cc]
-17.6 -21.1 74 -22 -22 по сезону 991.6 987.1
21 12.10 штиль 0 11 км 8/1 900 м
[Sc Ac As Cs]
-16.9 -20.3 75 -17 -16 тепло 991.3 986.9
00 13.10 штиль 0 11 км 3/1 1350 м
[Sc Cs]
-10.8 -16.7 62 -11 -7 тепло 990.9 986.6 -19.4 -8.7
03 13.10 штиль 0 11 км 4/1 600 м
[St Ac trans]
-10.7 -17.3 58 -11 -8 тепло 990.2 985.9
06 13.10 штиль 0 11 км 3/0
[Ac trans]
-12.8 -17.9 66 -13 -12 тепло 989.5 985.2
09 13.10 СЗ 3 11 км слабый снег 8/6 600 м
[Frnb Ac trans]
-17.8 -21.3 74 -25 -25 по сезону 989.8 985.4
12 13.10 штиль 0 11 км осадки на расстоянии {снег} 9/9 600 м
[Frnb]
-19.6 -23.4 72 -20 -20 по сезону 989.5 985.2 -19.8 -9.0
18 13.10 штиль 0 11 км 9/1 300 м
[St As trans Cs]
-18.1 -21.4 75 -18 -18 тепло 989.2 984.8
21 13.10 СВ 2 11 км слабый снег 9/9 400 м
[Frnb]
-17.2 -20.9 73 -23 -22 по сезону 988.9 984.5
00 14.10 В 7 8000 м дымка {снег} 5/5 270 м
[St]
-19.3 -22.7 74 -31 -30 опасность
обморожения
988.9 984.5 -20.2 -13.9
06 14.10 СВ 7 11 км 9/9 720 м
[Sc]
-22.6 -28.6 58 -35 -35 опасность
обморожения
990.7 986.3
09 14.10 СВ 8 11 км 6/6 900 м
[Sc]
-23.4 -29.7 56 -37 -37 опасность
обморожения
991.4 987.0
12 14.10 СВ 7 11 км 9/8 660 м
[Sc Ac As]
-22.4 -29.9 50 -35 -35 опасность
обморожения
991.7 987.3 -23.5 -19.3 0.0
18 14.10 В 7 11 км слабый снег 10/10 750 м
[Sc]
-22.2 -29.2 53 -35 -35 опасность
обморожения
993.0 988.6
21 14.10 В 9 11 км слабый снег туман 10/10 900 м
[Sc]
-22.5 -29.7 52 -36 -36 опасность
обморожения
993.7 989.2
00 15.10 СВ 7 9000 м слабый снег {метель} туман 10/10 800 м
[Sc]
-22.8 -30.0 52 -35 -35 опасность
обморожения
993.5 989.1 -23.6 -21.8
06 15.10 нст 2 11 км слабый снег {метель} 10/10 750 м
[Sc]
-19.7 -25.8 58 -26 -26 по сезону 992.1 987.7
09 15.10 В 2 11 км слабый снег 10/10 750 м
[Sc]
-21.4 -26.3 65 -28 -28 по сезону 992.1 987.7
12 15.10 В 5 11 км слабый снег 10/10 750 м
[Sc]
-25.3 -31.2 58 -36 -36 опасность
обморожения
991.4 987.0 -25.5 -19.2 0.0
18 15.10 В 7 11 км {снег} 5/5 900 м
[Sc]
-25.0 -32.8 48 -38 -38 опасность
обморожения
991.5 987.1
21 15.10 В 8 11 км 4/3 900 м
[Sc Ci sp]
-24.1 -34.4 38 -38 -37 опасность
обморожения
990.7 986.2
00 16.10 В 7 11 км 3/1 1350 м
[Sc Cc]
-22.5 -32.7 39 -35 -34 опасность
обморожения
990.3 985.9 -25.7 -21.4
06 16.10 штиль 0 11 км слабый снег 8/6 900 м
[Sc Ac As]
-20.6 -28.0 51 -21 -20 по сезону 988.7 984.3
09 16.10 штиль 0 11 км слабый снег 8/6 900 м
[Sc Ac As]
-21.5 -27.4 59 -22 -22 по сезону 988.7 984.2
12 16.10 В 2 11 км слабый снег 8/6 900 м
[Sc Ac As]
-21.9 -27.4 61 -28 -28 по сезону 988.5 984.1 -24.5 -20.0 0.0
18 16.10 штиль 0 11 км слабый снег 9/9 750 м
[Sc]
-20.6 -25.4 65 -21 -21 по сезону 988.3 983.9
21 16.10 штиль 0 11 км слабый снег 9/9 750 м
[Sc]
-19.4 -24.7 63 -19 -19 по сезону 988.7 984.3
00 17.10 штиль 0 11 км слабый снег 9/9 750 м
[Sc]
-17.0 -23.7 56 -17 -17 по сезону 988.8 984.4 -24.5 -17.0
06 17.10 штиль 0 11 км {снег} 3/3 840 м
[Sc]
-18.7 -25.6 54 -19 -18 по сезону 988.6 984.2
09 17.10 штиль 0 11 км 3/1 900 м
[Sc Ac As]
-25.8 -32.2 55 -26 -26 по сезону 988.0 983.6
12 17.10 В 2 11 км 1/0
[Ac As]
-24.1 -28.5 67 -31 -31 опасность
обморожения
987.5 983.1 -26.0 -17.1 0.0

 

Местоположение метеостанции McMurdo (Антарктида): широта -77.85 долгота 166.66 высота над уровнем моря 24 м.

В архиве по умолчанию представлена погода в McMurdo за последнюю неделю. Архивные данные за месяц целиком и за предыдущие месяцы, начиная с января 2011 года, Вы можете получить, выбрав интересующий диапазон дат из раскрывающегося списка и нажав кнопку "Ввод!".

Внимание! Время в таблицах - всемирное. Для получения местного времени необходимо прибавить поправку, которая в McMurdo равна 0 ч.

Смотрите также архив погоды в соседних городах и на ближайших метеорологических станциях:

Погода в Pegasus North (Антарктида) (12 км)
Погода в Linda (Антарктида) (78 км)
Погода в Minna Bluff (Антарктида) (78 км)
Погода в Marble Point (Антарктида) (84 км)
Погода в Ferrell (Антарктида) (97 км)
Погода в Arelis (Italy 7357) (Антарктида) (156 км)
Погода в Marilyn (Антарктида) (236 км)
Погода в Schwerdtfeger (Антарктида) (236 км)
Погода в Manuela (Антарктида) (333 км)
Погода в Eneide (Italy 7353) (Антарктида) (357 км)

Пояснения к столбцам:

Ветер - указаны скорость ветра в м/с - средняя за 10 мин, порывы в срок и между сроками (в фигурных скобках) и направление, откуда дует ветер: С - северный, СВ - северо-восточный, В - восточный, ЮВ - юго-восточный, Ю - южный, ЮЗ - юго-западный, З - западный, СЗ - северо-западный.
Видимость - горизонтальная дальность видимости в метрах или километрах. При видимости от 1 до 10 км при отсутствии осадков обычно наблюдается дымка, при ухудшении видимости до 1 км и менее - туман. В сухую погоду видимость может ухудшаться дымом, пылью или мглою.
Явления - указаны атмосферные явления, наблюдавшиеся в срок или в последний час перед сроком; фигурными скобками обозначены явления, наблюдавшиеся между сроками (за 1-3 часа до срока); квадратными скобками обозначены град или гололедные отложения с указанием их диаметра в мм.
Облачность - указаны через наклонную черту общая и нижняя облачность в баллах и высота нижней границы облаков в метрах; квадратными скобками обозначены формы облаков: Ci - перистые, Cs - перисто-слоистые, Cc - перисто-кучевые, Ac - высококучевые, As - высокослоистые, Sc - слоисто-кучевые, Ns - слоисто-дождевые, Cu - кучевые, Cb - кучево-дождевые. Подробнее классификацию облаков см. в Атласе облаков (PDF).
T - Температура воздуха - температура, измеренная на высоте 2 м над землей.
Td - Температура точки росы - температура, при понижении до которой содержащийся в воздухе водяной пар достигнет насыщения.
f - Относительная влажность воздуха - влажноcть воздуха, измеренная на высоте 2 м над землей.
Te - Эффективная температура - температура, которую ощущает одетый по сезону человек в тени. Характеристика душности погоды. При расчете учитывается влияние влажности воздуха и скорости ветра на теплоощущения человека.
Tes - Эффективная температура на солнце - температура, которую ощущает человек, с поправкой на солнечный нагрев. Характеристика знойности погоды. Зависит от высоты солнца над горизонтом, облачности и скорости ветра. Ночью, в пасмурную погоду, а также при ветре 12 м/с и более поправка равна нулю.
P - Атмосферное давление - приведенное к уровню моря атмосферное давление.
Po - Атмосферное давление - измеренное на уровне метеостанции атмосферное давление.
Tmin - Минимальная температура - минимум температуры воздуха на высоте 2 м над землей.
Tmax - Максимальная температура - максимум температуры воздуха на высоте 2 м над землей.
R - Количество осадков - Количество выпавших осадков за период времени, мм. При наведении курсора мыши на число - период времени, за который выпало указанное количество осадков.
R24 - Количество осадков - Количество выпавших осадков за 24 часа, мм.
S - Снежный покров - Высота снежного покрова, см. При наведении курсора мыши на число - состояние снежного покрова и степень покрытия местности в баллах.